Regional Weather Roundup
Issued by NWS Upton, NY

Home | Current Version | Previous Version | Text Only | Print | Product List | Glossary On
Versions: 1 2 3 4 5 6 7 8 9 10 11 12 13 14 15 16 17 18 19 20 21 22 23 24 25 26 27 28 29 30 31 32 33 34 35 36 37 38 39 40 41 42 43 44 45 46 47 48 49 50
673
ASUS41 KOKX 221608
RWROKX

REGIONAL WEATHER ROUNDUP
NATIONAL WEATHER SERVICE NEW YORK NY
1200 PM EDT FRI MAY 22 2015

NOTE: "FAIR" INDICATES FEW OR NO CLOUDS BELOW 12,000 FEET WITH NO
SIGNIFICANT WEATHER AND/OR OBSTRUCTIONS TO VISIBILITY.

NYZ071-072-176-178-NJZ106-104-221700-
NEW YORK CITY METRO AREA


CITY           SKY/WX    TMP DP  RH WIND       PRES   REMARKS
CENTRAL PARK   MOSUNNY   72  39  30 VRB7G21   29.94F
LAGUARDIA APRT MOSUNNY   70  39  32 NW13G23   29.91F
KENNEDY INTL   MOSUNNY   72  40  31 SW18      29.93S
NEWARK/LIBERTY MOSUNNY   73  40  30 NW16G24   29.92F
BRNX BOT. GARD   N/A     68  39  34 W9        29.93S
TETERBORO      SUNNY     72  39  30 W16G23    29.91F
$$

NYZ177-179-078>081-221700-
LONG ISLAND NEW YORK

CITY           SKY/WX    TMP DP  RH WIND       PRES   REMARKS
FARMINGDALE    SUNNY     70  41  34 NW9       29.92S
ISLIP          MOSUNNY   71  40  32 W14       29.89F
SHIRLEY        SUNNY     70  41  34 NW15      29.91S
WESTHAMPTON    SUNNY     70  40  33 W16       29.91S
MONTAUK POINT    N/A     66  47  50 W8        29.89S
$$

NYZ052-065-067-221700-
HUDSON VALLEY

CITY           SKY/WX    TMP DP  RH WIND       PRES   REMARKS
WHITE PLAINS   MOSUNNY   67  42  40 NW13G21   29.91S
NEWBURGH       SUNNY     66  45  45 NW21G32   29.92S
MONTGOMERY     SUNNY     69  41  36 NW20G26   29.91S
POUGHKEEPSIE   MOSUNNY   71  40  32 W17G25    29.88F
ALBANY         MOSUNNY   65  37  35 NW17G31   29.90R
$$

NJZ001-105-106-008-010-013-015-019>022-104-221700-
NEW JERSEY

CITY           SKY/WX    TMP DP  RH WIND       PRES   REMARKS
NEWARK/LIBERTY MOSUNNY   73  40  30 NW16G24   29.92F
TETERBORO      SUNNY     72  39  30 W16G23    29.91F
CALDWELL       MOSUNNY   70  40  33 N10G17    29.92F
MORRISTOWN     MOSUNNY   73  43  33 W10G24    29.93F
SOMERVILLE     SUNNY     71  40  32 NW12G24   29.93S
SUSSEX         SUNNY     68  40  35 NW8G20    29.95S
ANDOVER          N/A     68  41  37 N13G20    29.94F
TRENTON        SUNNY     72  40  31 W15G28    29.97S
MILLVILLE      SUNNY     69  45  41 W14       30.03S
ATLANTIC CITY    N/A     69  44  40 NW13G20   30.01S
WRIGHTSTOWN    SUNNY     69  44  39 W14G22    29.96F
TOMS RIVER     SUNNY     70  45  40 W12       29.98F
BELMAR         SUNNY     68  45  42 W12G20    29.96F
$$

PAZ047>061-062-071-221700-
EASTERN PENNSYLVANIA

CITY           SKY/WX    TMP DP  RH WIND       PRES   REMARKS
PHILADELPHIA   MOSUNNY   72  38  29 W18G26    30.01R
ALLENTOWN      SUNNY     69  41  36 W14G23    29.98S
SCRANTON       PTSUNNY   63  42  46 SW8       29.96F
$$

CTZ002-004>006-009-010-012-RIZ004-006-007-MAZ004-011-015-221700-
SOUTHERN NEW ENGLAND
 IN CT

CITY           SKY/WX    TMP DP  RH WIND       PRES   REMARKS
BRADLEY INTL   MOSUNNY   70  38  31 NW12      29.84F
HARTFORD       SUNNY     71  39  31 NW10G20   29.86S
DANBURY        MOSUNNY   67  42  40 W10G18    29.91S
WTRBRY/OXFORD  MOSUNNY   66  41  39 N9G17     29.91R
BRIDGEPORT     SUNNY     68  46  45 SW14G21   29.89S
MERIDEN        MOSUNNY   72  37  28 NW9G22    29.87F
NEW HAVEN      MOSUNNY   63  46  54 SW14G23   29.89S
CHESTER        FAIR      66  37  34 NW10G20   29.87F
GROTON         SUNNY     62  49  62 SW16      29.86S
WILLIMANTIC    SUNNY     69  37  30 W16G24    29.85F

 IN RI

CITY           SKY/WX    TMP DP  RH WIND       PRES   REMARKS
PROVIDENCE     MOSUNNY   71  37  28 W9G21     29.83F
BLOCK ISLAND   SUNNY     63  46  55 W14G20    29.88S
WESTERLY       SUNNY     65  46  50 SW13      29.86S

 IN MA

CITY           SKY/WX    TMP DP  RH WIND       PRES   REMARKS
BOSTON         MOSUNNY   70  36  28 W10       29.81S
WORCESTER      MOSUNNY   66  36  32 W15G22    29.83F
WESTFIELD      MOSUNNY   71  36  27 W17G24    29.84F
PROVINCETOWN   SUNNY     61  43  51 W3        29.83S
NANTUCKET      MOSUNNY   57  50  77 SW14      29.85S
$$

ANZ330-335-338-340-345-350-353-355-221700-
COASTAL MARINE OBSERVATIONS


STATION/POSITION TIME  SKY/WX   TEMP    WIND        PRES    VSBY  WAVE
                                AIR SEA DIR/SP/G                  HT/PER
                 (UTC)          (F)     (DEG/KT/KT) (MB)    (MI)  (FT/S)
NY HARB ENTRANCE 1550            58 56  200/  6/  8 1013.8          1/ 8
4S FIRE IS       1503               54                N/A           1/ 9
20S FIRE ISLAND  1550            56 55  240/ 10/ 14 1013.9          2/ 4
GREAT SOUTH BAY  1500            64 63  310/  8/ 12   N/A
23SW MTP         1550            55 54  240/ 12/ 14 1012.3          1/10
HUDSON CANYON    NOT AVBL
KINGS POINT      1500            63 58  320/  7/  9 1012.6
CENTRAL LI SOUND 1515            56 53  240/ 12/ 16   N/A
EASTERN LI SOUND 1500            53     250/ 14/ 17   N/A
ROBBINS REEF     1500            65     290/  9/ 11 1012.5
$$


>>>>>>>>>>>>>>>>>>>>>>>>>>>> KEY <<<<<<<<<<<<<<<<<<<<<<<<<<<
>                                                          <
>     SKY/WX - SKY CONDITION/PRESENT WEATHER               <
>     TMP    - TEMPERATURE IN FAHRENHEIT                   <
>     DP     - DEWPOINT IN FAHRENHEIT                      <
>     RH     - RELATIVE HUMIDITY IN PERCENT                <
>     WIND   - DIRECTION AND SPEED IN MPH                  <
>     PRES   - MEAN SEA LEVEL PRESSURE IN INCHES OF HG     <
>     WCI    - WIND CHILL INDEX                            <
>     VSB    - VISIBILITY IN MILES                         <
>     HX     - HEAT INDEX                                  <
>     TC     - TEMPERATURE IN CELSIUS                      <
>     VRB    - VARIABLE WIND DIRECTION                     <
>                                                          <
>>>>>>>>>>>>>>>>>>>>>>>>>>>> KEY <<<<<<<<<<<<<<<<<<<<<<<<<<<





USA.gov is the U.S. government's official web portal to all federal, state and local government web resources and services.